Regional Weather Roundup
Issued by NWS State College, PA

Home | Current Version | Previous Version | Graphics & Text | Print | Product List | Glossary Off
Versions: 1 2 3 4 5 6 7 8 9 10 11 12 13 14 15 16 17 18 19 20 21 22 23 24 25 26 27 28 29 30 31 32 33 34 35 36 37 38 39 40 41 42 43 44 45 46 47 48 49 50

000
ASUS41 KCTP 070803
RWRCTP

REGIONAL WEATHER ROUNDUP
NATIONAL WEATHER SERVICE STATE COLLEGE PA
300 AM EST SUN FEB 07 2016

Note: "fair" indicates few or no clouds below 12,000 feet with no
significant weather and/or obstructions to visibility.

* = STATION THAT DOES NOT REPORT PRECIPITATION /E.G. RAIN...SNOW...ETC/
    THUNDER OR FOG.

PAZ002>004-007>009-013>016-020>023-029>032-070900-
WESTERN PENNSYLVANIA

CITY           SKY/WX    TMP DP  RH WIND       PRES   REMARKS
ERIE           CLEAR     30  18  60 S7        30.14S
MEADVILLE      CLEAR     28  15  58 S6        30.13R
FRANKLIN*      CLEAR     27  12  54 SW5       30.15S
NEW CASTLE     FAIR      28  17  63 CALM      30.17S
BEAVER COUNTY  NOT AVBL
BUTLER*        CLEAR     27  12  54 CALM      30.19S
PITTSBURGH INT CLEAR     27  13  55 CALM      30.16F
PITTSBURGH     CLEAR     31  14  49 S7        30.16S
INDIANA*       CLEAR     23  19  86 CALM      30.19S
LATROBE        CLEAR     23  16  74 CALM      30.18F
WASHINGTON CO* CLEAR     21  16  79 CALM      30.16F
$$

PAZ004>006-010>012-017>019-024>028-033>037-041-042-045-046-049>053-070900-
CENTRAL PENNSYLVANIA

CITY           SKY/WX    TMP DP  RH WIND       PRES   REMARKS
BRADFORD       CLEAR     26  14  60 CALM      30.09S
DUBOIS         CLEAR     26  13  57 SW6       30.12S
CLEARFIELD     CLEAR     23  17  78 CALM      30.15S
JOHNSTOWN      CLEAR     29  10  45 W6        30.11S
ALTOONA        CLEAR     29  15  56 S5        30.16R
STATE COLLEGE  CLEAR     29  17  63 CALM      30.16S
WILLIAMSPORT   CLEAR     23  19  85 CALM      30.19S
SELINSGROVE    CLEAR     24  20  84 CALM      30.21S
FT INDIANTOWN  CLEAR     21  21  99 CALM      30.22R
CAPITAL CITY   CLEAR     23  17  78 CALM      30.22S
HARRISBURG     CLEAR     25  19  78 CALM      30.22R
YORK           CLEAR     19  16  88 CALM      30.21S
$$

PAZ038>040-043-044-047-048-054-055-060>062-067>071-070900-
EASTERN PENNSYLVANIA

CITY           SKY/WX    TMP DP  RH WIND       PRES   REMARKS
SCRANTON       CLEAR     25  17  72 CALM      30.16S
MOUNT POCONO   CLEAR     24  16  71 W5        30.12S
ALLENTOWN      CLEAR     23  18  81 CALM      30.22R
QUAKERTOWN*    SUNNY     21  19  93 CALM      30.22S
READING        CLEAR     23  17  78 CALM      30.22S
LANCASTER      CLEAR     24  21  88 CALM      30.22S
COATESVILLE    SUNNY     28  27  93 CALM      30.22F
POTTSTOWN      CLEAR     24  19  81 CALM      30.24S
BLUE BELL        N/A     23  23 100 CALM      30.23S
DOYLESTOWN     CLEAR     23  20  88 CALM      30.22S
WILLOW GROVE   NOT AVBL
NORTH PHILA    PTCLDY    28  24  85 CALM      30.26S
PHILADELPHIA   PTCLDY    33  23  66 CALM      30.26S
$$



USA.gov is the U.S. government's official web portal to all federal, state and local government web resources and services.